| time (UTC) | temp F | wind direction | speed MPH | gust MPH | rain 1hr in | rain 24hr in | rain mn in | humidity % | barometer mb |
| 20260904194558 | 96 | 153 | 2.0 | 10.0 | 0.00 | 0.00 | 0.00 | 44 | 1013.1 |
| 20260904193116 | 99 | 161 | 4.0 | 8.0 | 0.00 | 0.00 | 0.00 | 42 | 1013.3 |
| 20260904191556 | 98 | 300 | 4.0 | 8.0 | 0.00 | 0.00 | 0.00 | 43 | 1013.7 |
| 20260904190058 | 96 | 244 | 4.0 | 14.0 | 0.00 | 0.00 | 0.00 | 46 | 1014.0 |
| 20260904184558 | 95 | 170 | 4.0 | 12.0 | 0.00 | 0.00 | 0.00 | 47 | 1014.2 |
| 20260904183056 | 95 | 88 | 8.0 | 14.0 | 0.00 | 0.00 | 0.00 | 47 | 1014.2 |
| 20260904181553 | 94 | 163 | 8.0 | 14.0 | 0.00 | 0.00 | 0.00 | 49 | 1014.4 |
| 20260904180103 | 94 | 198 | 5.0 | 14.0 | 0.00 | 0.00 | 0.00 | 49 | 1014.9 |
| 20260904174556 | 93 | 162 | 10.0 | 17.0 | 0.00 | 0.00 | 0.00 | 51 | 1015.1 |
| 20260904173057 | 92 | 157 | 10.0 | 15.0 | 0.00 | 0.00 | 0.00 | 53 | 1015.2 |
| 20260904171555 | 91 | 173 | 8.0 | 18.0 | 0.00 | 0.00 | 0.00 | 54 | 1015.4 |
| 20260904170056 | 91 | 174 | 7.0 | 15.0 | 0.00 | 0.00 | 0.00 | 55 | 1015.4 |
| 20260904164556 | 91 | 174 | 10.0 | 17.0 | 0.00 | 0.00 | 0.00 | 56 | 1015.4 |
| 20260904163105 | 89 | 148 | 8.0 | 16.0 | 0.00 | 0.00 | 0.00 | 57 | 1015.6 |
| 20260904161610 | 89 | 167 | 9.0 | 16.0 | 0.00 | 0.00 | 0.00 | 58 | 1015.6 |
| 20260904160103 | 87 | 166 | 7.0 | 16.0 | 0.00 | 0.00 | 0.00 | 61 | 1015.7 |
| 20260904154556 | 86 | 188 | 4.0 | 10.0 | 0.00 | 0.00 | 0.00 | 62 | 1015.7 |
| 20260904153057 | 85 | 175 | 8.0 | 14.0 | 0.00 | 0.00 | 0.00 | 63 | 1015.7 |
| 20260904151605 | 84 | 175 | 6.0 | 10.0 | 0.00 | 0.00 | 0.00 | 65 | 1015.6 |
| 20260904150057 | 83 | 202 | 4.0 | 8.0 | 0.00 | 0.00 | 0.00 | 68 | 1015.7 |
| 20260904144609 | 82 | 151 | 4.0 | 8.0 | 0.00 | 0.00 | 0.00 | 72 | 1015.5 |
| 20260904143058 | 81 | 220 | 3.0 | 9.0 | 0.00 | 0.00 | 0.00 | 74 | 1015.3 |
| 20260904141604 | 80 | 165 | 4.0 | 8.0 | 0.00 | 0.00 | 0.00 | 76 | 1015.1 |
| 20260904140059 | 79 | 198 | 4.0 | 7.0 | 0.00 | 0.00 | 0.00 | 77 | 1015.1 |
| 20260904134603 | 78 | 192 | 3.0 | 7.0 | 0.00 | 0.00 | 0.00 | 79 | 1014.8 |
| 20260904133056 | 78 | 209 | 4.0 | 8.0 | 0.00 | 0.00 | 0.00 | 79 | 1014.7 |
| 20260904131556 | 78 | 170 | 5.0 | 10.0 | 0.00 | 0.00 | 0.00 | 79 | 1014.4 |
| 20260904130058 | 77 | 186 | 4.0 | 8.0 | 0.00 | 0.00 | 0.00 | 79 | 1014.1 |
| 20260904124557 | 77 | 213 | 5.0 | 10.0 | 0.00 | 0.00 | 0.00 | 79 | 1013.9 |
| 20260904123048 | 77 | 217 | 5.0 | 13.0 | 0.00 | 0.00 | 0.00 | 78 | 1013.8 |
| 20260904121552 | 77 | 206 | 7.0 | 11.0 | 0.00 | 0.00 | 0.00 | 78 | 1013.8 |
| 20260904120105 | 77 | 190 | 6.0 | 9.0 | 0.00 | 0.00 | 0.00 | 77 | 1013.7 |
| 20260904114553 | 78 | 202 | 8.0 | 14.0 | 0.00 | 0.00 | 0.00 | 75 | 1013.6 |
| 20260904113047 | 78 | 205 | 7.0 | 14.0 | 0.00 | 0.00 | 0.00 | 73 | 1013.5 |
| 20260904111546 | 78 | 212 | 7.0 | 14.0 | 0.00 | 0.00 | 0.00 | 72 | 1013.5 |
| 20260904110057 | 79 | 182 | 9.0 | 17.0 | 0.00 | 0.00 | 0.00 | 71 | 1013.5 |
| 20260904104549 | 79 | 186 | 8.0 | 13.0 | 0.00 | 0.00 | 0.00 | 69 | 1013.5 |
| 20260904103048 | 79 | 198 | 9.0 | 14.0 | 0.00 | 0.00 | 0.00 | 68 | 1013.4 |
| 20260904101554 | 80 | 182 | 8.0 | 14.0 | 0.00 | 0.00 | 0.00 | 66 | 1013.4 |
| 20260904100114 | 80 | 184 | 6.0 | 14.0 | 0.00 | 0.00 | 0.00 | 65 | 1013.3 |
| 20260904094548 | 80 | 185 | 7.0 | 14.0 | 0.00 | 0.00 | 0.00 | 64 | 1013.1 |
| 20260904093100 | 81 | 172 | 7.0 | 15.0 | 0.00 | 0.00 | 0.00 | 64 | 1013.1 |
| 20260904091558 | 81 | 173 | 9.0 | 19.0 | 0.00 | 0.00 | 0.00 | 64 | 1013.0 |
| 20260904090046 | 81 | 161 | 9.0 | 17.0 | 0.00 | 0.00 | 0.00 | 64 | 1013.1 |
| 20260904084605 | 82 | 153 | 11.0 | 16.0 | 0.00 | 0.00 | 0.00 | 64 | 1013.1 |
| 20260904083055 | 82 | 167 | 7.0 | 14.0 | 0.00 | 0.00 | 0.00 | 64 | 1013.0 |
| 20260904081550 | 82 | 175 | 9.0 | 16.0 | 0.00 | 0.00 | 0.00 | 63 | 1012.9 |
| 20260904080047 | 83 | 186 | 9.0 | 18.0 | 0.00 | 0.00 | 0.00 | 62 | 1012.9 |
| 20260904074606 | 83 | 168 | 9.0 | 19.0 | 0.00 | 0.00 | 0.00 | 62 | 1012.8 |
| 20260904073052 | 83 | 160 | 14.0 | 21.0 | 0.00 | 0.00 | 0.00 | 61 | 1012.9 |
| 20260904071622 | 84 | 179 | 13.0 | 19.0 | 0.00 | 0.00 | 0.00 | 60 | 1012.9 |
| 20260904070104 | 84 | 168 | 13.0 | 20.0 | 0.00 | 0.00 | 0.00 | 60 | 1013.0 |
| 20260904064603 | 84 | 153 | 14.0 | 21.0 | 0.00 | 0.00 | 0.00 | 59 | 1012.9 |
| 20260904063056 | 84 | 161 | 13.0 | 19.0 | 0.00 | 0.00 | 0.00 | 59 | 1013.0 |
| 20260904061549 | 84 | 164 | 15.0 | 22.0 | 0.00 | 0.00 | 0.00 | 58 | 1013.0 |
| 20260904060049 | 85 | 154 | 16.0 | 25.0 | 0.00 | 0.00 | 0.00 | 57 | 1013.0 |
| 20260904054600 | 86 | 144 | 17.0 | 28.0 | 0.00 | 0.00 | 0.00 | 55 | 1012.8 |
| 20260904053103 | 86 | 162 | 16.0 | 23.0 | 0.00 | 0.00 | 0.00 | 53 | 1012.8 |
| 20260904051548 | 87 | 157 | 15.0 | 22.0 | 0.00 | 0.00 | 0.00 | 51 | 1012.7 |
| 20260904050053 | 88 | 130 | 15.0 | 23.0 | 0.00 | 0.00 | 0.00 | 50 | 1012.7 |
| 20260904044608 | 88 | 159 | 15.0 | 21.0 | 0.00 | 0.00 | 0.00 | 49 | 1012.6 |
| 20260904043101 | 88 | 159 | 13.0 | 20.0 | 0.00 | 0.00 | 0.00 | 49 | 1012.5 |
| 20260904041554 | 88 | 140 | 13.0 | 19.0 | 0.00 | 0.00 | 0.00 | 49 | 1012.5 |
| 20260904040050 | 88 | 159 | 12.0 | 17.0 | 0.00 | 0.00 | 0.00 | 49 | 1012.6 |
| 20260904034553 | 89 | 164 | 11.0 | 19.0 | 0.00 | 0.00 | 0.00 | 49 | 1012.5 |
| 20260904033057 | 89 | 166 | 10.0 | 14.0 | 0.00 | 0.00 | 0.00 | 48 | 1012.6 |
| 20260904031604 | 89 | 157 | 11.0 | 16.0 | 0.00 | 0.00 | 0.00 | 48 | 1012.4 |
| 20260904030051 | 90 | 159 | 11.0 | 16.0 | 0.00 | 0.00 | 0.00 | 48 | 1012.1 |
| 20260904024600 | 89 | 155 | 8.0 | 12.0 | 0.00 | 0.00 | 0.00 | 48 | 1011.9 |
| 20260904023058 | 90 | 160 | 11.0 | 18.0 | 0.00 | 0.00 | 0.00 | 48 | 1011.8 |
| 20260904021554 | 90 | 153 | 14.0 | 19.0 | 0.00 | 0.00 | 0.00 | 47 | 1011.7 |
| 20260904020050 | 91 | 151 | 15.0 | 23.0 | 0.00 | 0.00 | 0.00 | 46 | 1011.3 |
| 20260904014549 | 92 | 152 | 16.0 | 21.0 | 0.00 | 0.00 | 0.00 | 44 | 1011.3 |
| 20260904013045 | 93 | 122 | 12.0 | 27.0 | 0.00 | 0.00 | 0.00 | 43 | 1011.3 |
| 20260904011558 | 95 | 109 | 14.0 | 25.0 | 0.00 | 0.00 | 0.00 | 40 | 1011.1 |
| 20260904010054 | 96 | 117 | 14.0 | 27.0 | 0.00 | 0.00 | 0.00 | 38 | 1010.7 |
| 20260904004548 | 99 | 126 | 12.0 | 19.0 | 0.00 | 0.00 | 0.00 | 34 | 1010.6 |
| 20260904003058 | 100 | 111 | 8.0 | 13.0 | 0.00 | 0.00 | 0.00 | 33 | 1010.5 |
| 20260904001557 | 100 | 126 | 8.0 | 12.0 | 0.00 | 0.00 | 0.00 | 32 | 1010.4 |
| 20260904000051 | 101 | 142 | 4.0 | 9.0 | 0.00 | 0.00 | 0.00 | 31 | 1010.6 |
| 20260903234551 | 101 | 98 | 5.0 | 10.0 | 0.00 | 0.00 | 0.00 | 31 | 1010.4 |
| 20260903233047 | 101 | 117 | 3.0 | 9.0 | 0.00 | 0.00 | 0.00 | 30 | 1010.3 |
| 20260903231550 | 101 | 117 | 7.0 | 13.0 | 0.00 | 0.00 | 0.00 | 30 | 1010.4 |
| 20260903230103 | 102 | 152 | 7.0 | 12.0 | 0.00 | 0.00 | 0.00 | 30 | 1010.4 |
| 20260903224555 | 102 | 0 | 6.0 | 10.0 | 0.00 | 0.00 | 0.00 | 29 | 1010.2 |
| 20260903223049 | 102 | 338 | 2.0 | 9.0 | 0.00 | 0.00 | 0.00 | 30 | 1010.1 |
| 20260903221602 | 101 | 66 | 5.0 | 12.0 | 0.00 | 0.00 | 0.00 | 30 | 1010.4 |
| 20260903220058 | 102 | 118 | 6.0 | 14.0 | 0.00 | 0.00 | 0.00 | 30 | 1010.4 |
| 20260903214603 | 102 | 155 | 7.0 | 13.0 | 0.00 | 0.00 | 0.00 | 30 | 1010.5 |
| 20260903213054 | 102 | 104 | 2.0 | 9.0 | 0.00 | 0.00 | 0.00 | 30 | 1010.7 |
| 20260903211558 | 102 | 328 | 1.0 | 8.0 | 0.00 | 0.00 | 0.00 | 30 | 1011.0 |
| 20260903204555 | 101 | 0 | 1.0 | 11.0 | 0.00 | 0.00 | 0.00 | 31 | 1011.4 |
| 20260903203053 | 101 | 106 | 6.0 | 16.0 | 0.00 | 0.00 | 0.00 | 31 | 1011.7 |
| 20260903201559 | 101 | 142 | 1.0 | 9.0 | 0.00 | 0.00 | 0.00 | 32 | 1011.8 |
| 20260903200057 | 101 | 156 | 8.0 | 12.0 | 0.00 | 0.00 | 0.00 | 31 | 1012.1 |